Siloam Springs, AR

2:35 AM CDT on April 26, 2017 (GMT -0500)
Smith

Weather History for KSLG - October, 2012

Change the Weather History Date:

Monday, October 22, 2012

  Actual Average Record
Temperature  
Mean Temperature - -  
Max Temperature - 66 °F 78 °F (2003)
Min Temperature - 46 °F 30 °F (2006)
Moisture  
Dew Point -    
Average Humidity    
Maximum Humidity    
Minimum Humidity    
Precipitation  
Precipitation 0.02 in - - ()
Sea Level Pressure  
Sea Level Pressure 29.95 in    
Wind  
Wind Speed 17 mph (South)    
Max Wind Speed 26 mph    
Max Gust Speed 33 mph    
Visibility 10 miles    
Events Thunderstorm    
Averages and records for this station are not official NWS values.
T = Trace of Precipitation, MM = Missing Value Source: NWS Daily Summary

Daily Weather History Graph

Daily Weather History Graph

Search for Another Location

Airport or City:

Trip Planner

Search our weather history database for the weather conditions in past years. The results will help you decide how hot, cold, wet, or windy it might be!

Date:

Astronomy

Oct. 22, 2012 Rise Set
Actual Time 7:31 AM CDT 6:32 PM CDT
Civil Twilight 7:05 AM CDT 6:58 PM CDT
Nautical Twilight 6:35 AM CDT 7:28 PM CDT
Astronomical Twilight 6:05 AM CDT 7:58 PM CDT
Moon 2:29 PM CDT (10/22) 12:31 AM CDT (10/22)
Length of Visible Light 11h 52m
Length of Day
11h 00m
First Quarter, 56% of the Moon is Illuminated
Oct 22
First Quarter
Oct 29
Full
Nov 6
Last Quarter
Nov 13
New
Nov 20
First Quarter

Hourly Weather History & Observations

Time (CDT) Temp. Dew Point Humidity Pressure Visibility Wind Dir Wind Speed Gust Speed Precip Events Conditions
12:55 AM - - N/A% 29.91 in 10.0 mi South 15.0 mph 23.0 mph N/A   Clear
1:55 AM - - N/A% 29.90 in 10.0 mi South 17.3 mph 23.0 mph N/A   Clear
2:35 AM - - N/A% 29.90 in 10.0 mi South 17.3 mph 25.3 mph N/A   Clear
2:55 AM - - N/A% 29.91 in 10.0 mi South 17.3 mph 24.2 mph N/A   Clear
3:55 AM - - N/A% 29.91 in 10.0 mi South 16.1 mph - N/A   Clear
4:15 AM - - N/A% 29.91 in 10.0 mi South 18.4 mph - N/A   Partly Cloudy
4:35 AM - - N/A% 29.91 in 10.0 mi South 17.3 mph 25.3 mph N/A   Mostly Cloudy
4:55 AM - - N/A% 29.91 in 10.0 mi South 17.3 mph 24.2 mph N/A   Overcast
5:15 AM - - N/A% 29.91 in 10.0 mi South 18.4 mph 26.5 mph N/A   Overcast
5:35 AM - - N/A% 29.91 in 10.0 mi South 21.9 mph - N/A   Mostly Cloudy
5:55 AM - - N/A% 29.92 in 10.0 mi South 19.6 mph 27.6 mph N/A   Partly Cloudy
6:15 AM - - N/A% 29.92 in 10.0 mi South 20.7 mph 27.6 mph N/A   Clear
6:55 AM - - N/A% 29.93 in 10.0 mi South 19.6 mph 29.9 mph N/A   Clear
7:55 AM - - N/A% 29.94 in 10.0 mi South 21.9 mph 32.2 mph N/A   Clear
8:15 AM - - N/A% 29.95 in 10.0 mi South 20.7 mph 26.5 mph N/A   Clear
8:35 AM - - N/A% 29.95 in 10.0 mi South 20.7 mph 26.5 mph N/A   Clear
8:55 AM - - N/A% 29.96 in 10.0 mi South 20.7 mph 27.6 mph N/A   Clear
8:56 AM - - N/A% 29.96 in 10.0 mi South 20.7 mph 27.6 mph N/A   Clear
9:15 AM - - N/A% 29.96 in 10.0 mi South 18.4 mph 27.6 mph N/A   Clear
9:35 AM - - N/A% 29.96 in 10.0 mi South 17.3 mph 27.6 mph N/A   Clear
10:15 AM - - N/A% 29.97 in 10.0 mi South 19.6 mph 25.3 mph N/A   Scattered Clouds
10:35 AM - - N/A% 29.97 in 10.0 mi South 24.2 mph 29.9 mph N/A   Partly Cloudy
11:35 AM - - N/A% 29.97 in 10.0 mi South 26.5 mph 33.4 mph N/A   Overcast
12:15 PM - - N/A% 29.97 in 10.0 mi South 24.2 mph 31.1 mph N/A   Overcast
12:35 PM - - N/A% 29.97 in 10.0 mi SSW 20.7 mph 31.1 mph N/A   Overcast
12:55 PM - - N/A% 29.97 in 10.0 mi South 19.6 mph 28.8 mph N/A   Overcast
1:15 PM - - N/A% 29.97 in 10.0 mi South 24.2 mph 28.8 mph N/A   Overcast
1:35 PM - - N/A% 29.97 in 10.0 mi South 19.6 mph 25.3 mph N/A   Overcast
1:55 PM - - N/A% 29.96 in 10.0 mi South 16.1 mph - N/A   Overcast
2:15 PM - - N/A% 29.96 in 10.0 mi South 16.1 mph 20.7 mph N/A   Overcast
2:55 PM - - N/A% 29.95 in 10.0 mi South 17.3 mph 24.2 mph N/A   Overcast
3:15 PM - - N/A% 29.96 in 10.0 mi South 16.1 mph - N/A   Overcast
3:35 PM - - N/A% 29.95 in 10.0 mi South 15.0 mph - N/A   Overcast
3:55 PM - - N/A% 29.96 in 10.0 mi South 13.8 mph - N/A   Overcast
4:35 PM - - N/A% 29.95 in 10.0 mi South 16.1 mph 20.7 mph N/A   Mostly Cloudy
4:55 PM - - N/A% 29.95 in 10.0 mi South 15.0 mph - N/A   Partly Cloudy
4:56 PM - - N/A% 29.94 in 10.0 mi South 13.8 mph - N/A   Partly Cloudy
5:15 PM - - N/A% 29.95 in 10.0 mi South 9.2 mph - N/A   Scattered Clouds
5:35 PM - - N/A% 29.96 in 10.0 mi South 12.7 mph - N/A   Overcast
6:15 PM - - N/A% 29.96 in 10.0 mi SSE 9.2 mph - N/A   Partly Cloudy
6:35 PM - - N/A% 29.94 in 10.0 mi SSE 10.4 mph - N/A   Mostly Cloudy
7:15 PM - - N/A% 29.91 in 10.0 mi SE 11.5 mph - N/A   Clear
7:35 PM - - N/A% 29.92 in 10.0 mi SSE 15.0 mph - N/A   Partly Cloudy
7:55 PM - - N/A% 29.92 in 10.0 mi SSE 11.5 mph - N/A   Partly Cloudy
8:15 PM - - N/A% 29.92 in 10.0 mi SSE 12.7 mph - N/A   Partly Cloudy
8:55 PM - - N/A% 29.94 in 10.0 mi South 11.5 mph - N/A   Scattered Clouds
9:15 PM - - N/A% 29.95 in 10.0 mi South 11.5 mph - N/A   Mostly Cloudy
9:35 PM - - N/A% 29.97 in 10.0 mi South 11.5 mph - N/A Thunderstorm Mostly Cloudy
9:55 PM - - N/A% 29.97 in 10.0 mi SSE 12.7 mph - N/A   Overcast
10:15 PM - - N/A% 29.97 in 10.0 mi South 10.4 mph 16.1 mph N/A   Overcast
10:35 PM - - N/A% 29.97 in 9.0 mi SSE 11.5 mph - 0.01 in Thunderstorm Overcast
10:55 PM - - N/A% 29.97 in 10.0 mi South 11.5 mph - 0.02 in Thunderstorm Mostly Cloudy
11:15 PM - - N/A% 29.97 in 9.0 mi South 11.5 mph - N/A Thunderstorm Mostly Cloudy
11:35 PM - - N/A% 29.96 in 9.0 mi South 12.7 mph - N/A   Mostly Cloudy
11:55 PM - - N/A% 29.96 in 10.0 mi South 12.7 mph - N/A   Mostly Cloudy